Printer-friendly version

IAU Minor Planet Center

Minor Planet Center

MPEC 2006-V47 : 2006 VV2

The following Minor Planet Electronic Circular may be linked-to from your own Web pages, but must not otherwise be redistributed electronically.


Read MPEC 2006-V46 Read MPEC 2006-V48


M.P.E.C. 2006-V47                                Issued 2006 Nov. 13, 17:06 UT

     The Minor Planet Electronic Circulars contain information on unusual
         minor planets and routine data on comets.  They are published
   on behalf of Commission 20 of the International Astronomical Union by the
          Minor Planet Center, Smithsonian Astrophysical Observatory,
                          Cambridge, MA 02138, U.S.A.

             Prepared using the Tamkin Foundation Computer Network

                              MPC@CFA.HARVARD.EDU
          URL http://cfa-www.harvard.edu/iau/mpc.html  ISSN 1523-6714

                                   2006 VV2

Observations:
     K06V02V* C2006 11 11.25116 03 05 40.81 +57 03 58.5          18.4   EV047704
     K06V02V  C2006 11 11.26344 03 05 38.28 +57 04 17.1          18.7   EV047704
     K06V02V  C2006 11 11.27606 03 05 35.77 +57 04 35.9          18.7   EV047704
     K06V02V  C2006 11 11.28834 03 05 33.27 +57 04 55.1          18.4   EV047704
     K06V02V  C2006 11 11.30066 03 05 30.55 +57 05 12.3          18.6   EV047704
     K06V02V  C2006 11 11.95517 03 03 20.60 +57 21 42.1          18.1 R EV047204
     K06V02V  C2006 11 11.95875 03 03 19.87 +57 21 47.4                 EV047204
     K06V02V  C2006 11 11.96221 03 03 19.15 +57 21 52.7                 EV047204
     K06V02V  C2006 11 11.98646 03 03 14.17 +57 22 30.6          17.9   EV047176
     K06V02V  C2006 11 11.98731 03 03 14.01 +57 22 31.8          17.7   EV047176
     K06V02V  C2006 11 11.99536 03 03 12.33 +57 22 43.6          17.6   EV047176
     K06V02V  C2006 11 11.99623 03 03 12.13 +57 22 44.8          17.4   EV047176
     K06V02V  C2006 11 11.99708 03 03 12.00 +57 22 46.2          17.5   EV047176
     K06V02V  C2006 11 12.00605 03 03 10.16 +57 22 59.7          18.7 V EV047939
     K06V02V  C2006 11 12.01992 03 03 07.32 +57 23 20.8          18.7 V EV047939
     K06V02V  C2006 11 12.22943 03 02 25.17 +57 28 34.1          18.0 R EV047H36
     K06V02V  C2006 11 12.23491 03 02 23.71 +57 28 44.0          18.0 R EV047H36
     K06V02V  C2006 11 12.25345 03 02 20.20 +57 29 12.3          17.2 V EV047703
     K06V02V  C2006 11 12.26478 03 02 17.80 +57 29 29.6          17.3 V EV047703
     K06V02V  C2006 11 12.27674 03 02 15.27 +57 29 46.7          19.2 R EV047854
     K06V02V  C2006 11 12.27770 03 02 15.03 +57 29 49.0          19.3 R EV047854
     K06V02V  C2006 11 12.27961 03 02 14.66 +57 29 51.3          19.2 R EV047854
     K06V02V  C2006 11 12.56803 03 01 15.60 +57 37 03.0          18.8 V EV047D35
     K06V02V  C2006 11 12.56956 03 01 15.28 +57 37 05.2          18.7 V EV047D35
     K06V02V  C2006 11 12.57112 03 01 14.94 +57 37 07.6          18.6 V EV047D35
     K06V02V  C2006 11 12.79522 03 00 28.60 +57 42 32.6          18.5   EV047130
     K06V02V  C2006 11 12.79647 03 00 28.34 +57 42 34.9          18.8   EV047130
     K06V02V  C2006 11 12.79822 03 00 27.86 +57 42 37.2          19.1   EV047130
     K06V02V  C2006 11 13.16845 02 59 09.58 +57 51 47.8          17.4 R EV047850
     K06V02V  C2006 11 13.17891 02 59 07.18 +57 52 03.2          18.0 R EV047850
     K06V02V  C2006 11 13.18829 02 59 05.00 +57 52 17.4          18.1 R EV047850
     K06V02V 5C2006 11 13.21487302 58 59.863+57 52 54.81         18.0 R EV047673
     K06V02V 5C2006 11 13.22112302 58 58.493+57 53 04.04                EV047673
     K06V02V 5C2006 11 13.23015002 58 56.509+57 53 17.52                EV047673
     K06V02V 5C2006 11 13.23431702 58 55.602+57 53 23.77                EV047673

Observer details:
130 Lumezzane.  Observers M. Casali, W. Marinello, M. Micheli, G. Pizzetti,
    A. Soffiantini.  Measurers W. Marinello, M. Micheli.  0.40-m f/4.5
    reflector + CCD.
176 Observatori Astronomic de Consell.  Observers A. Lopez, R. Pacheco.
    0.41-m f/4 reflector + CCD.
204 Schiaparelli Observatory.  Observers L. Buzzi, F. Luppi.  Measurer
    L. Buzzi.  0.60-m f/4.64 reflector + CCD.
673 Table Mountain Observatory, Wrightwood.  Observer J. Young.  0.61-m f/16
    Cassegrain + CCD.
703 Catalina Sky Survey.  Observer A. R. Gibbs.  Measurers E. C. Beshore,
    E. J. Christensen, G. J. Garradd, A. R. Gibbs, A. D. Grauer, R. E. Hill,
    R. A. Kowalski, S. M. Larson, R. H. McNaught.  0.68-m Schmidt + CCD.
704 Lincoln Laboratory ETS, New Mexico.  Observers M. Bezpalko, L. Manguso,
    D. Torres, R. Kracke, H. Love, G. Spitz, J. Kistler.  Measurers J. Stuart,
    J. Kommers.  1.0-m f/2.15 reflector + CCD.
850 Cordell-Lorenz Observatory, Sewanee.  Observers D. T. Durig, J. G. Vicars.
    0.30-m f/9.7 Schmidt-Cassegrain + 1Kx1K CCD.
854 Sabino Canyon Observatory, Tucson.  Observer J. E. McGaha.  0.36-m f/10.0
    Schmidt-Cassegrain + CCD.
939 Observatorio Rodeno.  Observer J. Castellano.  0.20-m f/3.3
    Schmidt-Cassegrain + CCD.
D35 Lulin Observatory.  Observers H.-C. Lin, C.-S. Lin, Q.-z. Ye.  Measurer
    Q.-z. Ye.  0.41-m f/8.8 Ritchey-Chretien + 2Kx2K CCD.
H36 Sandlot Observatory, Scranton.  Observer G. Hug.  0.30-m
    Schmidt-Cassegrain + CCD.

Orbital elements:
2006 VV2                                            PHA, Earth MOID = 0.0054 AU
Epoch 2006 Sept. 22.0 TT = JDT 2454000.5                MPC
M 321.07228              (2000.0)            P               Q
n   0.24039417     Peri.  145.51626     -0.90145443     -0.42718131
a   2.5616518      Node     9.96445     +0.24599020     -0.63854214
e   0.6384366      Incl.   23.85190     +0.35618636     -0.64014066
P   4.10           H   16.4           G   0.15           U   9
Residuals in seconds of arc
061111 704  0.1+  0.6+    061111 176  0.5+  0.2-    061112 D35  1.1-  0.9+
061111 704  0.2-  0.4+    061112 939  0.3+  0.2-    061112 130  0.2-  0.5-
061111 704  0.2+  0.1-    061112 939  0.8+  0.1+    061112 130  0.1-  0.1-
061111 704  0.2+  0.4+    061112 H36  1.7+  1.1-    061112 130  1.0-  0.4-
061111 704  1.6-  1.1-    061112 H36  0.8-  0.6+    061113 850  1.1+  0.1+
061111 204  0.2+  0.2-    061112 703  0.1+  0.2+    061113 850  0.3+  0.0
061111 204  0.3+  0.3-    061112 703  0.1+  0.4+    061113 850  0.7-  0.4+
061111 204  0.3+  0.2-    061112 854  0.1+  0.5-    061113 673  0.2+  0.2-
061111 176  0.1+  0.1+    061112 854  0.2-  0.4+    061113 673  0.2+  0.3-
061111 176  0.3+  0.0     061112 854  0.1+  0.2-    061113 673  0.1+  0.3-
061111 176  0.3+  0.3-    061112 D35  1.1-  1.0+    061113 673  0.2+  0.2-
061111 176  0.1+  0.4-    061112 D35  1.0-  0.9+

Ephemeris:
2006 VV2                 a,e,i = 2.56, 0.64, 24                  q = 0.9262
Date    TT    R. A. (2000) Decl.     Delta      r     Elong.  Phase     V
2006 11 11    03 06.49   +56 57.5    0.808    1.692   140.3    21.9    18.1
2006 11 21    02 27.04   +60 42.3    0.734    1.604   136.9    24.9    17.9
2006 12 01    01 36.20   +62 55.5    0.681    1.515   129.8    30.0    17.8
2006 12 11    00 44.08   +63 18.9    0.644    1.426   120.8    36.4    17.7
2006 12 21    00 01.58   +62 22.8    0.617    1.338   111.4    43.2    17.7
2006 12 31    23 32.41   +61 01.5    0.592    1.252   102.4    50.1    17.6
2007 01 10    23 14.11   +59 55.4    0.564    1.170    94.4    56.9    17.6
2007 01 20    23 02.89   +59 23.0    0.527    1.095    87.4    63.8    17.5
2007 01 30    22 55.11   +59 27.1    0.478    1.029    81.5    71.1    17.4
2007 02 09    22 47.18   +59 55.9    0.416    0.977    76.5    79.0    17.2
2007 02 19    22 35.66   +60 25.0    0.342    0.942    72.2    87.6    17.0
2007 03 01    22 16.01   +60 07.2    0.257    0.927    68.2    96.9    16.8
2007 03 11    21 41.39   +56 56.4    0.166    0.933    64.3   106.4    16.3
2007 03 21    20 35.91   +40 20.4    0.0776   0.961    61.3   114.6    15.2
2007 03 31    18 10.51   -45 58.3    0.0563   1.007    97.2    79.6    12.9
2007 04 10    14 49.16   -70 21.6    0.138    1.068   115.5    57.8    14.3
2007 04 20    13 12.16   -70 10.6    0.231    1.140   120.8    49.2    15.3
2007 04 30    12 39.53   -67 51.0    0.327    1.220   123.9    43.2    16.1
2007 05 10    12 32.40   -65 17.2    0.425    1.304   125.8    38.9    16.7
2007 05 20    12 37.44   -62 44.9    0.527    1.392   126.6    35.7    17.2
2007 05 30    12 49.26   -60 21.4    0.635    1.480   126.2    33.5    17.7
2007 06 09    13 04.93   -58 10.1    0.751    1.569   124.8    32.1    18.1
2007 06 19    13 22.93   -56 12.1    0.875    1.658   122.4    31.2    18.5
2007 06 29    13 42.40   -54 28.6    1.007    1.746   119.2    30.5    18.9
2007 07 09    14 02.70   -52 58.7    1.149    1.832   115.4    30.1    19.3
2007 07 19    14 23.52   -51 41.1    1.300    1.917   111.2    29.6    19.7
2007 07 29    14 44.67   -50 34.3    1.458    2.001   106.6    29.1    20.0
2007 08 08    15 05.98   -49 36.4    1.624    2.082   101.8    28.5    20.3
2007 08 18    15 27.37   -48 45.5    1.796    2.162    96.7    27.7    20.6
2007 08 28    15 48.79   -47 59.8    1.973    2.240    91.5    26.8    20.8
2007 09 07    16 10.16   -47 17.7    2.153    2.316    86.2    25.7    21.1
2007 09 17    16 31.46   -46 37.5    2.335    2.390    80.8    24.5    21.3
2007 09 27    16 52.63   -45 58.3    2.518    2.462    75.3    23.2    21.5
2007 10 07    17 13.61   -45 18.7    2.699    2.532    69.7    21.7    21.6
2007 10 17    17 34.39   -44 38.1    2.878    2.601    64.0    20.2    21.8

Kyle E. Smalley              (C) Copyright 2006 MPC           M.P.E.C. 2006-V47

Read MPEC 2006-V46 Read MPEC 2006-V48


Our Web policy. Index to the CBAT/MPC/ICQ pages.


Valid HTML 4.01!